カタログに戻る

COSMOS 2251 DEB

運用中LEO
NORAD 35033·DEBRIS·🇷🇺 Russia

打ち上げ Jun 16, 1993 から Plesetsk Cosmodrome

Loading…

次のパス (今後24時間)

TLE

最新Source: Space-Track

元期: Sep 13, 2026, 02:01 UTC

1 35033U 93036AGW 26256.08415273  .00001368  00000-0  34411-3 0  9990
2 35033  74.0275  19.7355 0013529  57.0348 303.2112 14.52137763699081

AllMySatでCOSMOS 2251 DEBをリアルタイム追跡

Download on the App Store